Kharkiv, Ukraine

7:42 PM EEST on April 22, 2018 (GMT +0300)
Osnova

Weather History for UKHH - February, 2013

Change the Weather History Date:

Friday, February 1, 2013

  Actual Average Record
Temperature  
Mean Temperature 30 °F -  
Max Temperature 34 °F - - ()
Min Temperature 27 °F - - ()
Degree Days  
Heating Degree Days 34    
Moisture  
Dew Point 31 °F    
Average Humidity 97    
Maximum Humidity 100    
Minimum Humidity 93    
Precipitation  
Precipitation 0.02 in 0.04 in - ()
Sea Level Pressure  
Sea Level Pressure 29.59 in    
Wind  
Wind Speed 6 mph ()    
Max Wind Speed 9 mph    
Max Gust Speed -    
Visibility 1.9 miles    
Events Fog , Snow    
T = Trace of Precipitation, MM = Missing Value Source: Averaged Metar Reports

Daily Weather History Graph

Daily Weather History Graph

Search for Another Location

Airport or City:

Astronomy

Feb. 01, 2013 Rise Set
Actual Time 7:08 AM EET 4:29 PM EET
Civil Twilight 6:33 AM EET 5:04 PM EET
Nautical Twilight 5:54 AM EET 5:42 PM EET
Astronomical Twilight 5:16 AM EET 6:20 PM EET
Moon 10:54 PM EET (2/1) 8:52 AM EET (2/1)
Length of Visible Light 10h 30m
Length of Day
9h 21m
Waning Gibbous, 73% of the Moon is Illuminated
Feb 1
Waning Gibbous
Feb 3
Last Quarter
Feb 10
New
Feb 17
First Quarter
Feb 25
Full

Hourly Weather History & Observations

Time (EET) Temp. Windchill Dew Point Humidity Pressure Visibility Wind Dir Wind Speed Gust Speed Precip Events Conditions
12:00 AM 28.4 °F 21.4 °F 28.4 °F 100% 29.59 in - SSE 6.7 mph - N/A Snow Light Snow
12:30 AM 30.2 °F 23.5 °F 30.2 °F 100% 29.59 in - South 6.7 mph - N/A Snow Light Snow
1:00 AM 30.2 °F 23.5 °F 28.4 °F 93% 29.56 in 3.1 mi South 6.7 mph - N/A Snow Light Snow
1:30 AM 30.2 °F 23.5 °F 30.2 °F 100% 29.56 in 3.1 mi SSW 6.7 mph - N/A Snow Light Snow
2:00 AM 30 °F - 29 °F 95% 29.61 in 3 mi South 6.7 mph - - Snow Light Snow
2:00 AM 30.2 °F 22.1 °F 30.2 °F 100% 29.56 in 4.3 mi South 8.9 mph - N/A Snow Light Snow
2:30 AM 30.2 °F 23.5 °F 30.2 °F 100% 29.56 in 1.6 mi SSW 6.7 mph - N/A Snow Light Snow
3:00 AM 30.2 °F 23.5 °F 30.2 °F 100% 29.56 in 0.7 mi SSW 6.7 mph - N/A   Overcast
3:30 AM 30.2 °F 23.5 °F 30.2 °F 100% 29.56 in 0.3 mi SW 6.7 mph - N/A Fog Light Freezing Fog
4:00 AM 30.2 °F 23.5 °F 30.2 °F 100% 29.56 in 0.5 mi WSW 6.7 mph - N/A Fog Light Freezing Fog
4:30 AM 30.2 °F 23.5 °F 30.2 °F 100% 29.56 in 1.1 mi West 6.7 mph - N/A   Overcast
5:00 AM 31 °F - 30 °F 94% 29.60 in 2 mi SW 4.5 mph - - Fog Light Fog
5:00 AM 30.2 °F 23.5 °F 30.2 °F 100% 29.56 in 1.6 mi WSW 6.7 mph - N/A   Overcast
5:30 AM 30.2 °F 22.1 °F 30.2 °F 100% 29.56 in 3.1 mi West 8.9 mph - N/A   Overcast
6:00 AM 30.2 °F 23.5 °F 30.2 °F 100% 29.56 in 3.1 mi West 6.7 mph - N/A   Overcast
6:30 AM 30.2 °F 23.5 °F 30.2 °F 100% 29.56 in - West 6.7 mph - N/A   Overcast
7:00 AM 30.2 °F 23.5 °F 30.2 °F 100% 29.56 in - West 6.7 mph - N/A   Overcast
7:30 AM 30.2 °F 23.5 °F 30.2 °F 100% 29.56 in 1.8 mi WSW 6.7 mph - N/A   Overcast
8:00 AM 30 °F - 30 °F 99% 29.63 in 0 mi SW 6.7 mph - - Fog Heavy Fog
8:00 AM 30.2 °F 23.5 °F 30.2 °F 100% 29.59 in 0.3 mi WSW 6.7 mph - N/A Fog Light Freezing Fog
8:30 AM 30.2 °F 25.5 °F 30.2 °F 100% 29.56 in 0.2 mi SW 4.5 mph - N/A Fog Light Freezing Fog
9:00 AM 30.2 °F 23.5 °F 30.2 °F 100% 29.56 in 0.1 mi South 6.7 mph - N/A Fog Light Freezing Fog
9:30 AM 32.0 °F 25.7 °F 32.0 °F 100% 29.56 in 0.1 mi South 6.7 mph - N/A Fog Light Freezing Fog
10:00 AM 32.0 °F 25.7 °F 32.0 °F 100% 29.56 in 0.2 mi South 6.7 mph - N/A Fog , Snow Light Snow
10:30 AM 32.0 °F 25.7 °F 32.0 °F 100% 29.56 in 0.6 mi SSW 6.7 mph - N/A Fog , Snow Light Snow Showers
11:00 AM 32 °F - 31 °F 97% 29.62 in 1 mi SSW 6.7 mph - - Snow Light Snow
11:00 AM 32.0 °F 25.7 °F 32.0 °F 100% 29.56 in 1.4 mi SW 6.7 mph - N/A Snow Light Snow
11:30 AM 32.0 °F 25.7 °F 32.0 °F 100% 29.56 in - SSW 6.7 mph - N/A Snow Light Snow
12:00 PM 33.8 °F 26.5 °F 33.8 °F 100% 29.59 in 1.5 mi WSW 8.9 mph - N/A   Overcast
12:30 PM 33.8 °F 27.9 °F 33.8 °F 100% 29.59 in 1.4 mi SW 6.7 mph - N/A   Overcast
1:00 PM 33.8 °F 27.9 °F 33.8 °F 100% 29.59 in 1.9 mi WSW 6.7 mph - N/A   Overcast
1:30 PM 33.8 °F 26.5 °F 33.8 °F 100% 29.59 in 1.6 mi WSW 8.9 mph - N/A   Overcast
2:00 PM 34 °F - 33 °F 93% 29.62 in 3 mi SW 8.9 mph - -   Mist
2:00 PM 33.8 °F 27.9 °F 33.8 °F 100% 29.59 in 2.8 mi WSW 6.7 mph - N/A   Overcast
2:30 PM 33.8 °F 26.5 °F 32.0 °F 93% 29.59 in 2.8 mi WSW 8.9 mph - N/A   Overcast
3:00 PM 33.8 °F 27.9 °F 32.0 °F 93% 29.59 in - WSW 6.7 mph - N/A   Overcast
3:30 PM 33.8 °F 27.9 °F 33.8 °F 100% 29.59 in - SW 6.7 mph - N/A   Overcast
4:00 PM 33.8 °F 27.9 °F 32.0 °F 93% 29.59 in 3.1 mi SW 6.7 mph - N/A   Overcast
4:30 PM 33.8 °F 27.9 °F 32.0 °F 93% 29.62 in 3.1 mi SW 6.7 mph - N/A   Overcast
5:00 PM 34 °F - 33 °F 95% 29.65 in 3 mi South 4.5 mph - -   Mist
5:00 PM 33.8 °F 27.9 °F 32.0 °F 93% 29.62 in 3.1 mi SSW 6.7 mph - N/A   Overcast
5:30 PM 33.8 °F 29.7 °F 32.0 °F 93% 29.62 in 3.1 mi SSW 4.5 mph - N/A   Mostly Cloudy
6:00 PM 33.8 °F 29.7 °F 32.0 °F 93% 29.62 in - SSW 4.5 mph - N/A   Mostly Cloudy
6:30 PM 33.8 °F 29.7 °F 32.0 °F 93% 29.62 in 3.1 mi SSW 4.5 mph - N/A   Mostly Cloudy
7:00 PM 32.0 °F 27.6 °F 32.0 °F 100% 29.62 in 3.1 mi SSW 4.5 mph - N/A   Mostly Cloudy
7:30 PM 30.2 °F 25.5 °F 30.2 °F 100% 29.62 in - SSE 4.5 mph - N/A   Mostly Cloudy
8:00 PM 30 °F - 29 °F 96% 29.66 in 2 mi South 4.5 mph - -   Mist
8:00 PM 32.0 °F 27.6 °F 32.0 °F 100% 29.62 in 1.7 mi SSW 4.5 mph - N/A   Mist
8:30 PM 32.0 °F 27.6 °F 30.2 °F 93% 29.62 in - SSE 4.5 mph - N/A   Mostly Cloudy
9:00 PM 32.0 °F 27.6 °F 32.0 °F 100% 29.62 in - South 4.5 mph - N/A   Mostly Cloudy
9:30 PM 33.8 °F 29.7 °F 32.0 °F 93% 29.62 in 3.1 mi South 4.5 mph - N/A   Mostly Cloudy
10:00 PM 33.8 °F 29.7 °F 32.0 °F 93% 29.62 in 3.1 mi SSW 4.5 mph - N/A   Mostly Cloudy
10:30 PM 32.0 °F 27.6 °F 30.2 °F 93% 29.62 in - South 4.5 mph - N/A   Mostly Cloudy
11:00 PM 32 °F - 31 °F 94% 29.68 in 2 mi SE 2.2 mph - -   Mist
11:00 PM 32.0 °F 27.6 °F 30.2 °F 93% 29.62 in - South 4.5 mph - N/A   Mostly Cloudy
11:30 PM 32.0 °F 27.6 °F 30.2 °F 93% 29.62 in - South 4.5 mph - N/A   Mostly Cloudy